This is the latest recevied weather packets stored in our database for station/object AD8AK. If no packets are shown the sender has not sent any weather packets the latest 10 day(s).
| Time | Temp. | Humidity | Pressure | Rain* | Wind** | Luminosity | Snow |
|---|---|---|---|---|---|---|---|
| 1777827558 | 15.56° C | 37% | 1015.1 hPa | 0 mm | - | - | - |
| 1777827255 | 15.56° C | 35% | 1015.1 hPa | 0 mm | - | - | - |
| 1777826951 | 15.56° C | 37% | 1015.2 hPa | 0 mm | - | - | - |
| 1777826649 | 15° C | 38% | 1015.1 hPa | 0 mm | - | - | - |
| 1777826345 | 15.56° C | 41% | 1015.3 hPa | 0 mm | - | - | - |
| 1777826043 | 15° C | 40% | 1015.6 hPa | 0 mm | - | - | - |
| 1777825739 | 15° C | 40% | 1015.6 hPa | 0 mm | - | - | - |
| 1777825437 | 15° C | 41% | 1015.5 hPa | 0 mm | - | - | - |
| 1777825134 | 15° C | 40% | 1015.7 hPa | 0 mm | - | - | - |
| 1777824830 | 14.44° C | 42% | 1015.5 hPa | 0 mm | - | - | - |
| 1777824527 | 14.44° C | 43% | 1015.7 hPa | 0 mm | - | - | - |
| 1777824223 | 14.44° C | 43% | 1015.7 hPa | 0 mm | - | - | - |
| 1777823919 | 14.44° C | 45% | 1015.8 hPa | 0 mm | - | - | - |
| 1777823617 | 14.44° C | 44% | 1015.8 hPa | 0 mm | - | - | - |
| 1777823313 | 14.44° C | 44% | 1015.9 hPa | 0 mm | - | - | - |
| 1777823011 | 13.89° C | 43% | 1015.8 hPa | 0 mm | - | - | - |
| 1777811782 | 7.22° C | 61% | 1016.7 hPa | 0 mm | - | - | - |
| 1777811479 | 7.22° C | 61% | 1016.7 hPa | 0 mm | - | - | - |
| 1777811175 | 6.67° C | 62% | 1016.6 hPa | 0 mm | - | - | - |
| 1777810873 | 6.67° C | 62% | 1016.8 hPa | 0 mm | - | - | - |
| 1777810569 | 6.67° C | 61% | 1016.7 hPa | 0 mm | - | - | - |
| 1777810266 | 6.67° C | 61% | 1017 hPa | 0 mm | - | - | - |
| 1777809961 | 6.11° C | 63% | 1016.8 hPa | 0 mm | - | - | - |
| 1777809660 | 6.11° C | 62% | 1016.7 hPa | 0 mm | - | - | - |
| 1777809357 | 5.56° C | 63% | 1016.8 hPa | 0 mm | - | - | - |
* Rain latest hour (hover to see other rain measurements)
** Current wind speed in m/s (hover to see current wind gust speed)